Airport Information

KMFR - Rogue Valley Intl Medford Airport

KMFR 221353Z 00000KT 10SM CLR 04/03 A3044 RMK AO2 SLP310 T00440033


  • General Information

  • Coordinates: N 42°22'27"/ W 122°52'24"
  • Location: N/A
  • Surveyed Elevation: 1335 MSL

Operations

Flow Name Active Runways Conditions

Green background denotes normal operations.


Common Frequencies

Callsign Frequency Position Name

More at the Document Center


Charts